Theta_e
320 319 318 318 317 317 315 315 314 312 310 307 306 305 305 305 305 305 304 304 304 304 304 304 304 304 304 304 304 304 304 304 303 303 302 302 301 300 299 297 297 297 297 297 297 297 296 295 294 294 294 293 293 293 293 294 294 294 295 295 295 295 295 294 294 294 294 294 294 294 294 294 295 295 294 295 295 294 294 294 294 295 295 295 295
318 317 316 316 315 315 314 313 312 310 308 306 305 305 305 305 305 305 304 304 303 303 303 304 304 304 304 303 304 304 303 303 303 302 302 301 301 300 298 297 297 297 297 297 296 296 295 295 294 294 294 293 293 293 293 293 294 294 294 294 294 294 294 294 294 294 294 294 294 294 294 294 294 294 294 294 294 294 294 294 294 295 295 295 295
317 316 315 315 314 314 313 312 310 309 307 306 306 306 305 305 304 304 304 304 303 303 302 303 304 304 304 304 304 304 303 303 303 302 302 301 301 300 298 298 297 297 297 297 296 295 294 294 295 294 293 292 292 293 293 293 293 294 294 293 294 294 293 294 294 293 293 294 294 294 294 294 294 294 294 294 294 294 294 294 294 294 295 295 295
316 315 315 314 313 313 311 310 309 307 306 306 306 305 305 304 304 304 303 303 302 302 302 302 303 304 304 304 304 304 303 303 302 302 301 301 301 300 299 298 298 298 297 297 296 296 295 295 295 294 292 292 293 293 293 293 294 294 294 294 294 294 293 293 293 293 293 293 294 294 294 294 294 294 294 294 294 294 294 294 294 294 295 295 295
315 314 314 313 312 311 310 309 308 307 306 306 305 305 304 304 303 303 302 302 300 299 299 300 302 303 304 304 303 303 303 303 302 302 301 301 300 300 299 299 298 298 298 297 297 296 295 295 295 293 292 293 293 294 294 294 294 294 294 294 294 293 293 293 293 293 293 293 293 293 293 293 293 294 294 294 294 294 294 294 294 295 295 295 295
314 313 313 312 311 310 309 308 307 306 306 305 305 304 304 303 303 303 302 302 300 296 295 297 300 302 304 304 303 303 303 303 302 302 301 301 300 300 300 299 298 298 298 297 297 296 296 296 294 293 293 293 294 294 294 294 294 294 294 293 293 293 293 293 293 293 293 293 293 293 293 293 293 293 293 294 293 293 294 294 294 294 295 295 295
313 312 312 311 310 309 308 307 306 306 305 305 304 304 303 303 303 303 302 301 298 294 293 295 298 301 303 303 303 303 303 303 302 302 301 300 300 300 300 299 299 299 298 297 297 296 296 296 294 293 294 294 294 294 294 294 294 293 293 292 292 292 292 292 292 292 292 292 292 292 292 293 293 293 293 293 293 293 294 294 294 294 295 295 295
312 312 311 310 309 308 307 306 305 305 305 304 304 304 303 303 302 302 300 298 295 293 293 294 297 300 302 303 303 303 302 302 302 301 301 300 300 299 299 299 299 299 298 298 297 296 296 295 294 293 294 294 294 294 294 294 294 292 292 292 292 292 292 292 292 292 292 292 292 292 292 292 292 293 293 293 293 293 293 294 294 294 295 295 295
311 310 310 309 309 308 307 306 305 304 304 304 304 303 303 302 302 300 297 294 293 294 294 295 296 299 302 303 303 302 302 302 302 301 301 300 300 299 299 299 299 299 298 298 297 296 296 295 294 294 294 294 294 294 294 293 293 292 292 291 291 291 291 291 291 291 292 291 292 292 292 292 292 292 293 293 293 293 293 294 294 294 294 295 295
310 310 309 309 308 307 306 306 305 304 304 304 303 303 302 302 301 298 294 293 293 294 294 295 296 299 301 302 302 302 302 302 302 301 301 300 300 299 298 298 298 299 299 298 297 296 296 295 294 294 294 294 294 294 294 293 292 292 291 290 290 290 290 291 291 291 291 291 291 291 291 292 292 292 292 292 293 293 293 293 294 294 294 295 295
310 309 309 308 307 306 305 305 304 304 304 304 303 303 302 302 301 297 294 293 294 294 294 295 296 298 300 301 302 302 301 301 301 301 301 300 299 299 299 298 298 298 298 298 296 296 296 295 295 295 294 294 294 294 293 293 292 292 291 290 289 290 290 290 290 290 290 291 291 291 291 291 291 292 292 292 293 293 293 293 294 294 294 295 295
309 309 309 307 306 306 305 305 304 304 304 304 303 302 302 301 299 295 293 293 294 294 294 295 296 297 299 300 301 301 301 301 300 300 300 300 300 299 299 299 298 297 298 297 296 296 296 296 295 294 294 295 294 293 293 292 292 291 290 289 289 289 289 290 290 289 290 290 290 291 291 291 291 292 292 292 292 292 293 293 293 294 294 295 295
309 308 308 307 306 305 305 304 304 303 303 303 303 302 302 300 297 293 292 293 293 294 294 295 296 297 298 299 300 300 300 300 300 300 300 300 300 300 299 299 298 297 297 297 297 296 296 296 295 294 295 295 294 293 293 292 292 291 290 289 289 290 290 291 291 290 290 290 290 290 291 291 291 291 292 292 292 292 292 293 293 294 294 295 295
308 307 307 306 305 305 304 304 303 303 303 303 302 302 301 299 297 294 292 292 293 293 294 295 296 297 298 299 299 299 299 299 299 299 299 299 299 299 299 299 298 298 297 297 297 296 296 295 294 294 295 294 293 293 293 292 292 291 290 289 289 290 291 292 292 292 291 291 290 290 291 291 291 291 292 292 292 292 292 293 293 294 295 295 295
307 307 306 305 305 304 304 303 303 303 303 303 302 302 301 300 298 295 292 292 293 293 293 294 296 297 298 298 298 298 298 298 298 298 298 298 298 298 299 298 298 297 297 297 297 297 296 295 294 295 295 294 293 293 293 292 291 290 289 289 289 290 292 292 292 292 292 292 291 291 291 292 291 291 292 292 292 292 292 293 294 294 294 294 294
307 306 305 305 304 304 303 303 303 303 303 303 302 302 301 301 299 296 292 292 293 293 293 294 295 296 297 297 298 298 298 298 297 296 294 294 295 297 298 298 298 297 297 297 297 296 295 294 294 295 295 293 293 293 292 292 290 289 289 289 288 290 292 292 293 293 293 293 293 292 292 292 292 292 292 292 292 292 293 293 294 294 294 294 294
306 306 305 304 304 303 303 303 303 303 303 303 302 302 301 301 300 296 293 292 292 292 293 293 293 294 295 295 296 295 294 294 293 292 291 292 293 296 297 297 298 297 297 297 296 295 294 295 295 295 295 293 292 292 292 291 290 289 289 288 288 290 291 292 293 293 294 294 294 294 293 293 292 292 292 292 292 292 293 293 294 294 294 294 293
306 305 304 304 304 303 303 303 303 303 303 303 302 302 301 302 301 298 293 291 292 291 291 291 291 291 292 292 292 291 291 291 291 290 291 292 293 295 296 297 297 297 297 297 295 294 294 295 295 295 294 293 292 292 291 290 289 289 289 288 288 289 291 292 293 293 293 294 294 294 294 293 292 292 292 292 292 292 293 293 293 294 294 293 293
306 305 304 304 303 303 303 303 303 303 303 303 302 302 302 302 302 300 295 291 291 291 291 292 292 291 291 290 290 290 290 290 290 290 290 290 291 292 294 295 296 296 296 296 295 294 295 295 295 295 294 293 292 291 290 290 289 288 288 288 288 289 290 292 292 292 293 293 293 293 293 292 292 292 292 292 292 292 292 293 293 293 293 293 292
306 305 304 303 303 303 303 303 303 302 303 303 303 302 302 302 302 301 296 291 291 293 294 295 295 294 293 292 291 290 290 290 290 290 290 290 290 291 292 294 294 295 295 295 294 295 295 295 295 294 293 293 292 291 290 290 289 289 288 288 288 289 290 292 292 292 293 293 293 293 292 292 292 291 291 292 292 292 292 293 293 293 293 292 292
305 304 304 303 303 303 302 302 302 302 302 302 302 303 303 302 302 302 298 293 292 295 296 297 298 297 296 295 293 291 290 290 290 289 289 290 291 292 293 293 294 294 294 295 295 295 295 295 295 294 293 293 292 291 290 290 290 290 289 288 288 288 290 291 292 293 293 293 293 293 292 291 291 291 291 291 291 291 292 292 293 293 293 292 292
305 304 303 303 302 302 302 302 302 302 302 302 302 302 303 302 302 302 300 296 294 295 296 297 297 298 298 297 295 293 292 291 290 290 289 290 291 292 293 294 294 294 295 295 295 295 295 295 294 294 293 293 293 292 291 290 291 291 291 289 288 288 289 290 292 292 293 293 292 292 291 291 291 291 291 291 291 291 292 292 293 293 293 292 292
305 303 303 302 302 302 302 302 302 302 302 301 302 302 302 302 302 302 302 299 296 295 296 297 297 297 298 298 297 296 294 292 291 290 289 290 292 293 294 294 294 295 295 295 295 295 295 295 294 294 294 293 293 292 292 292 291 292 292 291 290 288 288 289 291 292 292 292 291 291 291 290 290 290 290 290 291 291 292 292 293 293 292 292 292
304 303 303 302 302 301 301 302 302 302 301 301 301 301 301 301 301 301 301 300 297 295 296 297 297 297 298 298 298 298 296 293 292 290 289 290 292 293 294 294 295 295 295 295 295 295 295 295 294 294 294 294 293 293 293 293 292 292 292 292 292 290 288 288 289 291 291 291 290 290 290 290 290 290 290 290 291 291 292 292 292 293 292 292 292
304 303 302 302 301 301 301 301 301 301 301 301 301 301 300 299 299 300 300 298 296 296 297 297 297 298 298 298 299 299 297 295 293 291 289 290 292 294 294 294 295 295 295 295 295 295 295 295 294 294 294 294 294 293 293 293 293 293 293 293 292 291 289 288 288 289 290 290 290 290 290 290 290 290 291 291 291 292 292 292 292 292 292 292 292
304 302 302 301 301 300 301 301 301 301 301 301 301 301 299 297 296 297 297 297 297 297 298 298 298 298 299 299 299 299 298 297 295 291 289 290 292 293 294 294 294 295 295 295 295 295 295 295 295 294 294 294 294 294 293 293 293 293 293 293 293 292 290 289 288 288 289 290 290 290 290 291 291 291 292 292 291 291 291 291 292 292 292 292 292
303 302 301 301 300 300 300 300 300 301 301 301 301 300 299 298 297 296 296 297 298 298 298 299 299 299 299 299 299 299 299 299 297 293 290 290 291 293 294 294 294 294 295 295 295 295 295 295 295 295 294 294 294 294 293 293 293 293 293 293 293 293 292 290 289 288 289 290 290 290 291 291 291 291 292 292 291 292 292 291 291 292 292 292 292
303 301 301 301 300 300 300 300 300 301 301 301 300 300 299 299 299 299 298 299 299 299 299 299 299 300 300 300 300 299 299 299 299 295 292 290 291 293 294 294 294 295 295 295 295 295 295 295 295 295 294 294 294 294 293 293 293 293 293 294 293 293 292 292 291 289 288 289 290 291 291 291 291 290 291 291 291 292 292 292 292 291 291 292 292
302 301 301 301 301 300 300 300 301 301 301 300 300 300 300 300 300 300 300 300 300 300 300 300 300 300 300 300 300 300 299 299 299 297 294 291 290 293 294 294 295 295 295 295 295 295 295 295 295 295 294 294 294 294 293 293 293 293 294 294 294 293 293 292 291 290 288 288 289 290 290 291 290 290 290 290 291 292 292 292 292 292 291 291 291
301 301 301 301 301 301 300 300 301 301 301 300 300 300 300 300 301 301 300 300 300 300 300 300 300 301 301 301 300 300 299 299 299 298 295 291 290 292 294 294 295 295 295 296 296 295 295 295 295 295 294 294 294 294 294 293 293 293 293 294 294 294 293 292 292 291 289 288 288 289 290 290 290 290 290 289 290 291 292 292 292 292 291 291 291
301 301 301 301 301 301 300 300 301 301 301 300 300 300 300 300 300 301 300 300 300 300 300 300 300 301 301 301 300 299 299 298 298 298 295 292 290 291 292 294 295 295 295 296 296 295 295 295 295 295 294 294 294 294 294 293 293 293 293 294 294 294 293 293 292 291 290 289 288 288 289 290 290 290 290 289 289 290 291 292 292 292 291 291 291
301 301 301 301 301 301 301 301 301 301 301 300 300 300 300 300 300 300 300 300 300 300 300 300 301 301 302 301 300 299 299 298 298 297 295 292 290 290 291 293 295 295 295 296 296 296 296 295 295 295 294 294 294 294 294 294 293 293 293 293 294 294 293 293 292 292 291 290 288 288 289 289 290 290 290 290 289 290 290 291 291 291 292 291 291
302 301 301 301 301 301 301 301 301 301 301 300 300 300 300 300 300 300 300 300 300 300 301 301 301 301 302 301 299 298 298 298 297 297 295 292 290 290 290 292 294 295 295 296 296 296 296 295 295 295 295 294 295 294 294 294 294 293 293 293 294 294 294 293 292 292 292 291 289 288 288 289 289 290 290 290 289 289 290 290 290 291 291 291 291
302 302 302 301 301 301 301 301 301 301 301 301 300 300 300 300 300 300 300 300 300 301 301 301 300 300 300 300 299 298 298 298 297 296 294 291 290 290 290 291 293 294 295 296 296 296 296 296 296 295 295 295 295 295 295 295 294 294 293 293 293 294 294 294 293 292 292 292 291 289 288 288 289 290 290 290 290 289 290 290 290 290 290 291 291
302 302 302 302 301 301 301 301 301 301 301 300 300 300 300 300 300 300 300 300 300 301 301 301 300 299 299 299 298 298 298 297 295 294 292 291 290 290 290 291 293 294 295 296 296 296 296 296 296 296 295 295 295 295 295 295 295 294 294 293 293 294 294 294 294 293 292 292 292 290 289 288 288 289 290 290 289 289 289 289 290 290 289 290 291
302 302 302 302 301 301 301 301 301 301 301 300 301 300 300 300 301 300 300 300 300 301 301 300 299 298 298 298 298 298 298 296 293 291 291 290 290 290 290 291 293 294 295 296 296 296 296 296 296 296 296 296 295 295 295 295 295 295 294 294 293 293 294 294 294 293 293 292 292 291 290 289 288 289 290 290 290 289 289 289 290 290 290 290 291
302 302 302 301 301 301 301 301 301 301 301 301 300 300 300 300 300 300 300 300 300 301 300 299 298 297 297 298 297 297 296 294 292 290 290 291 290 290 290 291 293 294 295 296 296 296 296 296 296 296 296 296 296 296 295 296 296 295 295 294 294 293 293 294 294 294 293 292 292 292 291 290 289 289 289 290 290 290 290 289 289 290 290 291 292
303 302 302 301 301 301 301 301 301 301 301 300 300 299 299 300 300 300 300 300 300 300 300 299 299 298 299 299 298 296 294 294 292 291 290 290 290 290 291 291 293 294 295 295 296 296 296 296 296 296 296 296 296 296 296 296 296 296 295 295 295 294 293 294 294 294 293 293 292 292 292 291 290 289 289 290 290 290 290 289 289 289 290 291 292
302 302 302 301 301 301 301 301 301 301 300 300 299 299 300 300 300 300 300 300 300 300 300 300 300 300 299 299 297 294 293 293 292 291 291 291 291 291 291 292 293 295 295 296 296 296 296 296 296 296 296 296 296 296 296 296 296 296 296 295 295 295 294 293 294 294 294 293 293 293 292 292 291 290 290 290 290 290 290 290 289 289 289 289 290
302 302 302 301 301 301 301 301 301 301 300 300 299 299 299 300 300 300 300 299 300 300 299 299 300 299 298 296 294 292 292 292 292 291 291 291 292 293 293 294 294 295 296 296 296 296 296 296 296 296 296 297 296 296 297 296 296 296 296 295 295 295 294 294 294 294 294 294 293 293 293 292 292 291 290 290 290 290 290 290 290 290 289 289 290
302 302 302 301 301 301 301 301 301 300 300 300 300 299 299 300 300 300 300 299 298 298 298 298 298 299 299 297 294 292 292 292 293 294 294 294 295 296 296 296 296 296 296 296 296 296 296 295 295 296 296 297 297 297 297 296 296 296 296 296 296 295 295 295 294 293 294 294 293 293 293 293 292 292 291 290 290 290 290 290 290 290 290 289 289
302 302 302 301 301 301 301 301 301 300 300 300 300 300 300 300 300 299 299 299 299 298 297 297 298 299 300 299 296 294 293 294 294 295 296 296 297 297 297 298 298 298 297 297 296 296 296 295 295 296 297 297 297 297 297 297 297 297 296 296 296 296 295 295 294 294 294 294 294 293 293 293 293 292 292 291 291 291 290 290 290 289 289 289 289
302 301 301 301 301 301 301 301 301 300 300 300 300 300 300 300 300 299 299 300 299 298 298 299 300 299 299 299 297 296 295 296 296 296 297 297 298 298 299 299 299 299 299 298 298 297 297 296 295 295 296 297 297 297 297 297 297 297 296 296 296 296 296 295 295 294 294 294 294 294 293 293 293 293 292 292 292 291 291 290 290 290 289 290 290
302 301 301 301 301 301 301 301 300 300 300 300 300 301 301 301 300 300 300 300 300 299 299 300 300 299 299 299 298 297 297 297 298 298 299 299 299 299 299 299 299 299 299 299 299 298 297 296 296 296 296 297 297 297 297 297 297 297 296 297 296 296 296 296 296 295 294 294 294 294 293 293 293 293 293 292 292 292 292 292 291 290 290 290 290
302 301 301 301 301 301 301 300 300 300 300 300 300 301 301 301 301 301 300 300 300 300 300 300 300 300 300 300 299 299 299 299 300 300 300 300 300 300 299 299 299 299 299 299 299 298 298 297 297 297 297 297 297 297 297 297 297 297 297 297 297 296 296 296 296 296 295 295 294 294 294 294 293 293 293 293 292 292 292 292 292 291 291 290 290
302 302 301 301 301 301 301 300 300 300 300 300 300 300 300 301 301 301 301 301 300 300 300 300 300 300 300 300 300 300 300 300 300 300 300 300 300 299 299 299 299 299 299 298 298 298 298 298 297 297 297 297 298 297 297 298 297 297 297 297 297 297 297 296 296 296 295 295 295 294 294 294 294 294 293 293 293 292 292 292 292 292 292 291 291
302 301 301 301 301 301 301 301 301 300 300 299 299 299 300 300 300 300 301 301 301 300 300 300 300 300 300 301 301 300 300 300 299 299 299 299 299 299 299 299 299 299 298 298 298 298 298 298 298 298 298 298 298 298 298 298 298 298 297 297 297 297 297 297 296 296 296 295 295 295 294 294 294 294 294 293 293 293 292 292 292 292 292 292 291
302 301 301 301 301 300 301 301 300 300 300 300 300 300 301 301 301 300 301 301 301 300 300 300 300 300 300 300 301 300 300 299 299 299 299 299 299 299 299 299 299 299 299 299 298 298 298 298 298 298 298 298 298 298 298 298 298 298 298 298 298 297 297 297 297 296 296 295 295 295 295 294 294 294 294 294 294 293 293 292 292 292 293 293 292
302 301 301 301 301 301 301 300 300 300 300 301 301 302 301 301 301 301 300 300 300 300 300 300 300 300 300 300 300 300 299 299 299 299 299 299 299 299 299 299 299 299 299 299 298 298 298 298 298 298 298 298 298 298 298 298 298 298 298 298 298 298 297 297 297 297 296 295 295 295 295 295 295 294 294 294 294 294 293 293 293 292 293 293 293
302 301 301 301 301 301 301 301 301 301 301 301 301 301 301 301 301 301 300 300 299 299 300 300 300 300 300 299 299 299 299 299 299 299 299 299 299 299 299 299 299 299 298 298 298 298 298 298 298 298 299 298 298 298 298 298 298 298 298 298 298 298 298 297 297 297 297 296 295 295 295 295 295 295 294 294 294 294 294 293 293 293 293 293 293
302 302 302 302 302 302 301 301 301 301 301 301 301 301 301 301 301 301 300 300 300 300 300 300 300 300 300 299 299 299 298 299 299 299 299 299 299 299 299 299 299 299 299 299 299 299 299 299 299 299 299 299 299 299 299 298 298 299 298 298 298 298 298 298 298 298 298 297 296 295 295 295 295 295 295 295 294 294 294 294 293 293 293 293 293
Wind_Speed
24 24 24 24 25 25 25 25 23 22 22 22 23 24 23 22 22 21 21 19 18 19 19 19 19 19 20 20 20 20 19 19 18 18 18 18 17 17 17 18 19 19 19 18 17 17 17 19 20 20 20 20 21 20 20 19 17 15 15 15 16 17 16 14 10 15 25 30 30 33 34 33 34 35 37 38 40 40 39 38 37 36 35 35 35
25 24 25 25 25 25 25 24 23 23 23 24 24 24 23 22 22 21 20 19 17 17 18 18 18 18 19 20 20 20 19 19 19 18 18 18 17 16 16 17 19 18 18 17 17 16 17 18 19 19 19 20 20 19 18 18 18 18 18 18 19 20 19 17 15 14 21 29 32 32 34 32 32 34 35 35 38 40 40 40 39 37 36 35 35
25 25 25 25 25 25 24 24 24 24 24 25 24 23 23 23 22 20 20 18 16 15 16 17 18 18 19 20 20 20 19 19 19 18 17 17 16 15 14 16 17 17 16 16 16 17 17 18 18 18 19 19 20 19 18 18 19 19 20 21 21 22 22 21 19 17 19 26 30 31 33 33 33 34 34 34 35 36 38 39 39 38 37 36 36
26 26 26 25 25 24 24 24 25 25 25 25 24 24 23 23 21 19 18 17 15 15 15 16 17 18 19 20 19 19 19 18 18 17 17 16 15 15 14 14 14 14 14 14 15 16 17 18 18 18 18 19 19 19 19 19 20 20 21 22 22 23 24 24 23 21 21 24 29 31 33 33 33 34 34 33 33 34 35 37 38 38 38 37 38
27 26 26 26 25 25 25 25 25 26 25 25 24 24 24 22 20 18 17 15 14 14 15 16 17 19 19 19 19 19 18 17 17 17 16 15 14 14 13 13 12 11 11 12 13 15 16 17 17 17 18 18 18 19 20 21 22 23 22 23 23 24 24 25 25 24 23 24 28 31 32 32 32 33 33 33 34 35 34 35 36 37 39 41 41
27 27 27 27 26 26 26 25 26 26 25 25 24 24 23 21 19 17 15 13 12 13 15 17 18 19 20 19 19 18 17 17 17 17 15 14 13 12 11 11 10 9 9 10 12 14 15 16 16 16 16 17 18 20 22 24 24 24 24 24 24 25 26 26 26 26 25 25 27 30 31 32 31 32 33 33 33 34 35 37 38 37 39 42 43
27 28 27 28 27 27 26 26 26 26 25 25 25 24 22 20 18 15 12 11 12 14 16 18 19 20 20 19 19 18 17 16 16 16 14 13 12 11 10 9 9 7 6 8 10 12 13 14 15 15 15 17 19 21 23 25 25 24 24 25 25 25 26 27 26 26 26 25 26 27 29 31 31 31 33 34 32 31 34 37 38 39 40 40 42
29 28 28 28 28 27 27 26 26 26 25 25 25 23 21 19 16 14 12 11 14 16 17 19 20 20 20 20 19 18 17 16 15 15 14 12 11 10 9 8 8 7 5 6 9 10 11 13 14 14 15 17 19 22 23 24 24 23 24 24 25 26 26 27 27 26 25 25 25 26 28 30 30 31 33 33 31 31 34 34 35 39 42 41 40
30 30 29 28 28 27 27 27 27 26 25 25 25 23 21 18 15 13 12 14 16 18 18 18 19 20 20 20 18 17 16 16 15 14 13 11 10 10 9 9 8 7 5 5 7 9 10 12 13 13 15 17 19 21 21 21 22 23 24 25 26 26 26 26 26 26 25 24 24 25 26 27 29 31 32 32 31 33 37 37 35 37 42 43 41
30 30 29 28 28 27 27 28 27 26 26 26 25 24 21 18 16 14 14 16 17 18 18 18 19 19 20 19 18 17 16 15 14 13 12 11 9 9 9 9 8 6 4 4 6 7 9 11 12 13 16 17 19 20 19 19 20 21 23 24 25 25 26 26 26 25 24 23 24 25 24 24 29 31 31 34 35 36 38 37 35 37 39 36 34
31 30 29 29 28 28 28 28 28 27 27 27 26 24 21 18 16 15 15 17 17 17 17 17 18 18 18 18 17 16 15 14 13 12 11 10 9 8 7 6 6 5 5 5 5 5 7 9 12 14 16 18 18 19 19 20 21 21 22 22 22 23 24 25 26 26 25 24 25 26 23 24 30 33 33 35 36 37 38 36 34 36 34 26 22
31 30 30 29 29 29 29 29 29 28 28 28 26 24 21 19 17 16 16 17 17 17 17 17 17 17 17 17 17 15 14 13 12 11 10 9 8 6 5 5 4 4 5 5 4 4 5 8 11 13 15 17 17 18 19 20 21 22 23 23 22 22 23 23 24 25 25 24 25 27 27 27 31 34 35 37 38 38 38 36 35 34 32 26 23
32 31 30 31 31 30 30 30 30 30 29 28 27 25 22 19 17 16 16 16 16 17 17 17 17 17 17 17 16 15 14 12 10 10 8 7 6 5 4 4 4 4 6 6 3 3 3 8 11 12 14 16 16 18 20 21 22 23 23 24 24 24 24 24 24 25 26 25 25 28 31 30 31 34 38 39 40 39 36 34 35 33 31 31 32
32 31 31 32 31 31 31 31 30 30 29 29 27 25 23 20 17 16 16 16 17 17 17 17 17 17 17 17 16 14 12 11 9 8 7 5 5 4 4 4 4 4 6 6 3 3 3 8 10 12 14 15 16 18 20 21 23 24 25 26 26 26 25 25 25 26 27 28 27 30 33 33 33 36 40 40 39 38 36 36 36 35 35 37 39
32 32 32 32 32 32 32 31 30 30 30 29 28 26 24 21 18 16 15 16 17 17 17 18 17 17 16 16 15 14 11 9 7 6 5 5 5 5 5 4 4 4 5 6 4 1 4 7 9 12 13 14 16 18 19 20 22 24 26 26 27 27 26 26 27 27 28 30 30 31 34 35 36 37 39 40 38 38 38 37 37 38 38 38 38
31 32 32 32 33 33 33 32 31 31 31 30 29 28 25 22 19 17 16 17 18 18 18 18 17 16 16 15 14 13 10 7 6 5 4 4 6 7 7 6 5 5 5 5 3 2 4 6 9 11 12 13 15 17 17 20 22 24 26 27 27 28 27 26 26 26 28 30 31 32 34 36 37 38 39 40 40 40 39 36 35 38 36 31 31
31 32 32 33 34 33 34 34 32 32 31 31 30 29 26 24 21 19 18 19 19 19 19 18 16 15 15 13 12 12 10 7 5 4 3 3 4 7 8 7 7 6 5 4 1 2 3 6 9 10 11 13 15 16 17 20 22 24 26 27 28 29 28 28 27 27 28 30 31 34 35 37 39 40 41 42 41 41 38 34 35 38 33 23 21
31 32 32 33 34 34 34 34 33 33 32 31 31 29 27 25 22 20 19 19 21 20 19 19 17 15 14 13 12 12 11 8 6 5 4 3 4 6 8 8 8 7 5 3 1 1 2 5 8 9 10 12 14 15 17 20 22 24 25 27 28 29 29 29 30 30 31 32 34 36 38 40 40 40 42 43 42 41 38 36 38 39 32 24 23
31 32 32 33 34 34 34 34 34 33 32 31 30 29 27 25 23 21 19 20 22 22 21 20 18 16 15 13 12 11 10 9 7 6 5 4 3 4 6 7 8 7 5 4 3 2 2 4 7 8 9 11 13 15 18 20 22 24 25 26 27 28 29 29 30 32 33 35 37 39 40 41 41 41 43 44 42 41 39 39 40 37 32 29 29
30 30 31 33 33 34 34 34 34 33 32 31 29 28 27 26 24 22 21 21 23 23 21 19 17 15 14 12 11 10 9 8 7 6 5 4 3 3 4 6 8 8 7 6 4 2 2 4 6 7 8 10 12 15 18 20 23 25 26 26 25 26 27 27 28 30 33 35 37 38 40 41 42 43 43 44 43 42 42 41 39 37 34 32 33
28 29 31 32 33 33 33 34 34 33 32 30 29 28 27 26 26 24 23 23 23 22 20 17 15 13 12 11 9 8 7 7 6 5 4 4 4 4 5 8 9 10 8 6 3 2 3 4 5 6 8 10 12 15 18 20 22 26 28 27 25 25 26 26 27 29 31 34 36 38 39 40 42 43 43 43 43 42 43 41 38 37 37 34 34
29 29 31 32 33 33 33 33 33 32 31 30 30 28 27 26 26 25 25 24 23 21 20 17 15 13 11 9 8 6 5 5 5 4 4 4 4 5 7 9 9 8 7 4 2 2 3 5 5 6 8 10 11 14 18 20 22 24 27 29 29 28 27 27 27 28 31 33 35 37 38 39 41 42 42 43 43 43 43 42 39 38 38 36 33
29 29 30 31 31 32 33 33 33 32 31 30 30 30 28 27 27 26 26 25 24 23 21 19 16 15 13 11 9 6 4 3 3 3 2 3 4 6 7 8 8 6 5 3 1 2 4 4 3 4 7 10 11 13 16 19 21 23 26 29 31 31 30 29 29 29 31 33 34 35 37 38 39 41 42 42 43 43 43 44 42 40 38 37 32
30 31 31 31 31 31 32 33 32 32 31 31 31 30 29 27 27 27 27 26 26 25 22 20 19 17 15 14 12 10 7 5 3 2 1 2 4 6 7 7 6 5 3 1 1 3 3 3 3 4 6 9 11 12 14 17 20 22 24 28 31 33 33 32 31 31 31 32 33 34 36 38 39 40 41 41 42 44 45 45 44 42 40 38 33
33 33 32 32 32 32 32 32 32 32 32 32 32 31 29 28 28 28 28 27 27 26 23 22 20 19 17 16 14 13 10 8 6 4 3 3 5 6 6 5 4 3 2 1 2 3 3 4 3 4 5 8 11 12 13 15 18 21 23 26 29 32 33 33 32 31 31 32 32 33 35 38 39 40 41 42 42 43 45 46 45 44 43 41 37
34 31 31 32 32 31 32 32 32 32 33 33 33 31 30 29 29 29 29 29 27 25 24 23 21 20 19 17 16 14 13 11 9 7 6 6 7 7 7 5 5 4 3 3 3 3 3 4 4 4 5 8 10 13 14 14 16 19 22 24 27 30 32 33 32 30 30 31 32 32 34 37 39 41 43 43 43 43 43 43 44 44 44 41 37
32 30 30 31 31 31 32 32 32 32 33 33 33 31 31 31 30 30 31 30 28 25 24 23 22 21 21 19 17 16 15 14 12 10 8 8 8 9 9 7 6 5 4 4 4 3 3 4 4 4 5 7 9 11 13 14 15 17 20 23 25 28 30 31 31 30 29 30 31 32 34 36 38 41 43 43 42 43 43 42 41 41 43 41 35
31 30 30 32 32 32 33 33 33 33 33 34 34 33 33 32 32 32 32 30 29 27 25 24 23 21 21 20 19 18 18 18 16 13 11 10 10 11 11 9 7 6 5 5 5 4 4 4 5 5 6 7 9 11 13 14 15 16 18 21 24 26 28 30 32 31 30 29 30 31 33 36 37 39 41 42 42 43 43 42 40 40 41 39 33
31 31 32 33 33 32 33 34 34 34 34 34 33 33 33 33 32 32 30 28 27 25 24 23 22 20 20 20 20 21 21 20 17 14 11 10 11 12 12 10 9 7 6 6 6 5 4 4 5 5 6 8 10 12 14 16 17 17 17 20 22 24 26 29 31 32 31 30 30 31 33 35 36 37 39 40 42 43 42 41 41 40 40 38 33
31 31 32 33 32 32 32 32 33 33 33 33 32 30 30 30 30 30 28 27 26 23 22 21 20 19 19 20 20 21 18 15 13 14 13 12 13 14 14 12 11 9 8 7 6 6 5 5 5 6 7 9 10 13 15 16 18 18 17 19 21 23 24 26 29 30 31 31 30 30 31 33 35 36 37 37 40 42 42 41 41 39 38 36 33
31 31 31 31 31 31 31 31 32 32 32 33 33 30 28 27 28 28 28 27 27 25 23 21 20 20 20 20 20 20 17 12 11 14 15 14 14 15 16 15 13 11 10 8 7 7 7 6 6 6 7 8 10 12 14 15 17 17 17 18 20 22 23 24 26 29 30 30 30 30 30 31 33 34 35 35 37 39 40 41 41 40 38 36 33
31 31 31 32 32 32 32 32 32 31 31 31 32 31 29 26 25 26 27 27 27 27 25 23 22 22 21 21 20 20 17 15 14 16 16 15 15 16 17 17 15 13 12 10 9 8 9 8 8 7 7 8 10 11 12 14 15 16 16 17 19 21 21 22 23 26 28 29 30 30 30 30 31 32 33 34 35 37 38 39 39 38 38 37 35
32 32 34 33 32 32 32 32 32 32 32 32 32 31 30 28 26 25 24 24 25 25 24 23 23 22 22 22 21 19 16 15 16 16 16 16 16 16 16 17 16 15 13 12 10 9 10 10 10 9 8 9 10 11 11 13 14 15 16 16 18 19 20 20 21 23 26 27 28 28 28 29 30 31 32 33 34 34 36 37 37 36 35 34 34
32 34 35 32 30 31 32 32 32 32 33 34 34 31 30 30 29 27 24 22 22 22 22 22 22 22 22 23 22 19 16 15 15 16 17 17 16 16 17 17 17 16 15 13 12 11 11 11 12 11 10 10 10 11 12 13 13 15 15 16 17 18 19 19 20 21 24 26 27 27 27 28 28 29 31 32 33 33 34 35 35 34 32 32 32
32 35 37 34 32 33 33 33 33 33 33 33 32 31 29 29 28 27 25 23 21 21 21 22 22 22 22 22 21 19 17 16 15 16 17 17 17 17 17 17 17 17 16 15 13 13 12 13 13 12 12 12 12 12 12 13 14 14 15 16 17 18 18 19 19 20 22 24 26 26 26 26 27 28 28 30 31 31 32 33 33 32 31 31 31
33 36 37 36 34 33 33 33 33 33 33 32 31 31 31 30 28 26 25 23 21 20 20 21 21 21 22 23 22 20 19 18 17 17 17 17 17 18 19 18 18 18 17 16 15 15 14 14 14 14 14 14 13 13 13 13 14 15 15 16 17 17 18 18 18 19 20 21 23 25 25 25 26 26 27 28 29 29 29 31 32 32 32 31 30
34 33 33 32 31 31 31 31 31 32 33 34 33 33 33 31 29 26 24 23 22 21 21 22 23 23 24 24 23 21 20 19 18 18 18 18 19 20 21 20 19 19 18 18 17 16 16 15 15 15 15 15 15 15 14 14 15 15 15 16 16 17 17 17 17 17 18 19 21 23 24 24 24 25 25 26 28 29 29 30 31 32 33 32 31
33 32 32 31 29 28 29 29 29 30 33 33 33 33 33 31 29 27 26 26 25 24 25 26 26 26 26 26 25 23 22 22 21 20 20 21 22 22 23 22 21 21 20 19 18 18 18 17 16 16 16 16 16 16 16 16 16 16 17 17 17 17 17 17 17 17 17 18 19 20 22 23 23 23 23 24 26 27 28 28 29 30 32 32 30
31 32 34 33 30 29 28 28 29 30 32 32 31 30 31 31 29 28 28 27 27 27 28 28 28 28 27 26 26 25 25 24 24 23 23 24 24 24 23 23 23 23 22 21 20 20 20 19 18 18 17 17 17 17 17 17 17 18 18 18 19 18 18 17 18 17 17 17 18 19 21 22 22 22 21 22 23 25 26 27 28 28 28 30 28
30 31 33 33 31 29 28 29 31 32 33 32 31 31 31 31 30 29 29 29 29 30 31 30 30 28 25 24 25 27 27 26 26 25 24 25 25 24 24 24 24 24 24 22 21 21 21 21 21 20 19 18 18 18 19 19 19 19 19 19 20 20 19 18 19 19 18 17 17 18 19 20 21 21 21 20 21 22 23 25 26 27 27 28 28
31 32 32 32 31 29 28 29 31 32 33 34 33 32 32 32 31 30 30 30 31 31 31 31 30 28 25 23 24 26 26 26 26 25 25 25 26 26 26 25 25 25 25 23 22 22 21 21 20 20 19 19 19 19 19 20 20 20 20 20 20 20 20 20 19 19 19 18 17 17 18 19 20 21 20 19 19 20 20 21 23 25 26 27 28
33 34 33 33 31 29 28 29 31 31 31 32 32 32 32 31 30 30 31 31 31 31 31 31 30 28 26 24 24 25 27 27 27 26 26 26 27 27 27 26 26 26 25 25 23 22 21 20 19 19 18 18 18 19 20 20 21 21 21 21 21 21 21 21 20 20 19 19 18 17 17 18 19 19 19 19 18 18 18 20 21 23 25 26 27
33 34 34 33 33 32 32 31 30 29 29 29 29 30 31 30 30 31 31 31 31 31 31 31 29 26 25 25 25 27 28 28 28 28 28 28 29 29 28 27 27 26 26 26 24 23 22 21 19 19 18 19 19 20 20 21 21 21 21 22 22 22 22 22 21 20 19 19 19 18 17 17 18 18 19 19 18 17 17 18 20 21 23 25 25
33 33 33 34 35 35 33 30 28 29 30 30 30 30 30 30 30 30 30 30 31 31 32 31 28 25 24 26 27 28 29 29 29 29 29 29 29 28 27 25 25 25 25 25 23 22 22 21 20 19 18 19 19 20 21 22 23 23 24 24 24 24 24 23 21 20 19 19 19 19 18 17 18 18 19 19 19 17 16 17 18 19 21 23 24
36 35 35 35 36 35 33 30 29 29 31 31 31 31 31 30 29 29 28 29 31 32 32 32 30 27 26 27 28 29 29 28 28 28 28 28 28 26 25 24 23 23 23 22 21 21 21 21 20 20 20 20 20 21 22 23 24 26 27 27 27 27 27 25 22 20 19 19 20 19 19 18 18 19 19 19 18 18 17 16 16 17 19 21 22
36 35 35 35 35 34 33 31 31 30 31 31 30 30 29 28 28 28 28 30 32 33 34 34 32 29 28 28 28 28 27 26 26 26 26 26 26 25 23 22 22 22 21 20 20 21 22 22 22 23 23 23 23 23 24 25 25 27 28 29 30 30 30 28 26 23 21 20 19 19 19 20 19 19 19 19 19 18 18 16 15 15 16 17 19
35 35 35 35 34 33 32 31 30 29 28 28 28 28 26 26 27 28 29 31 32 33 34 34 32 30 28 28 28 28 27 26 25 24 23 23 23 22 21 22 22 22 21 20 21 22 23 23 23 24 25 25 26 26 26 26 27 28 29 30 31 32 32 31 29 26 23 22 21 19 19 20 20 20 20 20 19 19 19 17 16 15 14 14 16
34 34 34 34 32 31 31 29 27 25 24 23 22 22 22 23 25 28 30 32 32 32 33 33 30 28 27 27 27 28 27 26 24 22 22 22 22 22 22 23 24 24 24 24 24 24 25 25 26 26 27 28 29 29 29 29 30 30 30 31 31 32 32 32 31 29 26 24 23 21 19 20 20 20 20 20 20 20 20 19 17 16 14 14 14
33 32 32 32 31 30 28 27 25 23 22 21 20 20 19 20 23 25 28 30 30 30 30 29 27 25 25 25 25 26 25 24 23 22 22 22 22 23 24 24 25 26 27 26 25 25 25 25 26 26 27 28 29 30 31 31 32 32 31 30 29 29 29 29 29 29 27 26 25 24 22 21 21 21 21 21 21 21 21 20 19 18 16 15 14
31 31 31 30 29 27 26 25 24 23 21 20 20 21 23 24 25 26 28 28 28 27 26 25 24 23 22 22 22 22 22 22 22 22 22 23 23 23 24 25 26 27 27 27 26 26 25 26 26 27 27 28 29 29 29 30 31 30 29 28 26 25 25 25 25 25 26 26 26 25 25 23 22 22 22 22 22 23 23 22 21 19 18 18 16
31 30 30 28 26 24 23 23 23 22 21 20 21 24 26 29 30 30 29 27 26 26 26 25 24 23 22 22 22 22 22 22 23 23 24 24 24 24 25 26 26 27 27 27 27 26 26 27 27 28 29 30 30 30 29 29 28 27 26 25 24 22 21 22 22 21 22 23 25 25 26 26 25 25 24 23 23 24 24 24 23 21 20 19 18
Wind_Direction
165 165 164 164 163 161 162 162 162 161 160 159 157 155 154 153 151 148 144 141 141 140 138 136 135 134 133 131 128 127 126 124 125 124 118 112 108 104 96 91 90 86 79 73 66 61 57 51 44 38 33 30 29 28 30 31 27 21 15 5 360 357 345 326 296 296 316 325 324 326 332 332 330 332 332 331 333 333 331 331 330 329 328 327 326
164 164 162 162 161 160 161 162 162 161 159 159 157 155 155 154 152 151 145 142 143 142 141 141 140 138 136 134 132 131 129 127 129 127 120 115 111 107 98 92 91 87 80 73 66 60 54 48 42 37 31 27 26 25 23 22 19 14 11 5 357 355 348 331 313 301 309 321 326 327 331 332 328 330 331 328 328 330 329 328 328 327 326 325 324
166 165 163 162 162 161 162 162 162 162 160 159 158 156 156 155 155 153 147 145 146 145 146 147 147 145 140 138 137 136 133 131 131 128 123 118 113 108 101 95 92 88 82 76 67 59 54 48 42 35 29 27 28 27 24 19 14 9 5 1 353 350 350 339 324 311 306 315 324 326 328 330 328 328 330 327 326 327 326 325 326 325 325 324 322
166 166 164 163 162 162 163 163 163 162 161 159 158 158 157 156 157 155 150 149 150 149 150 152 153 152 147 143 142 141 139 137 135 131 126 120 113 107 102 99 96 90 83 76 67 58 52 48 41 33 29 31 31 28 24 18 11 5 360 355 351 346 346 343 334 323 312 312 320 325 326 326 326 327 328 327 327 326 324 324 324 324 324 324 322
167 167 165 163 163 164 163 163 164 162 160 159 158 158 158 157 158 157 153 151 149 150 153 157 159 158 152 149 147 145 143 142 140 135 129 123 116 108 103 105 103 94 83 75 67 58 52 46 40 33 31 32 30 23 17 12 7 2 358 354 352 347 345 344 340 333 322 314 318 324 327 326 325 327 329 328 326 325 324 323 323 324 324 323 322
168 167 166 165 164 164 163 164 164 162 161 159 159 159 158 159 159 157 157 154 148 149 154 158 162 161 157 153 151 148 145 144 142 137 130 125 122 115 111 115 113 99 84 74 65 56 51 45 37 35 36 31 24 17 10 6 4 2 359 356 352 349 346 345 342 337 329 322 320 322 325 326 325 326 330 330 326 324 323 323 323 324 324 323 322
169 168 167 166 165 165 165 165 164 163 162 160 159 160 159 161 161 158 160 160 153 151 152 155 159 160 158 155 152 149 146 143 141 138 131 127 127 125 120 124 128 114 91 75 64 55 49 42 38 37 36 26 17 11 5 1 2 3 0 357 354 350 348 346 343 338 332 326 323 323 323 325 325 324 328 330 326 324 325 323 321 322 324 322 320
169 168 167 166 166 166 166 165 164 163 163 161 161 160 161 162 160 157 160 161 156 153 151 152 155 157 157 155 152 150 148 144 141 140 136 131 131 128 117 121 137 136 115 83 63 57 48 40 39 37 29 19 11 6 4 1 1 2 1 359 356 353 349 346 343 338 333 327 324 325 324 324 326 326 328 330 327 326 327 323 316 317 320 320 317
169 167 167 167 167 167 167 166 165 164 163 163 162 161 161 161 157 153 156 157 156 153 151 150 152 153 155 154 152 152 150 145 143 144 142 137 135 128 113 114 131 141 133 100 68 59 50 40 38 32 19 11 6 5 7 7 4 2 2 1 358 355 351 348 344 338 333 329 326 327 326 324 326 327 327 328 326 324 325 322 315 314 317 315 314
169 168 168 168 168 168 168 168 167 166 165 164 163 162 162 160 156 153 154 156 155 153 150 150 151 152 153 152 152 153 151 149 148 149 148 144 141 133 120 115 124 142 148 112 79 61 50 41 33 20 9 5 6 7 8 9 7 4 4 3 1 357 353 348 344 340 335 329 327 328 326 323 325 326 324 324 325 324 323 321 316 316 318 315 313
170 170 170 170 170 170 170 170 169 168 167 166 165 164 162 160 156 154 153 154 154 153 152 151 150 151 152 152 152 151 150 150 153 156 154 151 149 142 133 124 119 136 155 127 89 65 50 35 21 10 4 4 6 6 7 7 6 5 4 4 3 2 358 350 345 342 337 331 328 328 325 321 324 326 324 324 325 324 322 320 317 318 319 317 313
171 172 172 171 171 171 171 170 169 169 168 167 166 164 162 160 156 153 152 153 153 152 152 150 149 150 151 151 150 149 148 148 151 156 156 157 159 154 147 143 129 131 150 145 104 70 46 19 8 4 4 5 4 4 6 6 5 3 2 3 4 4 4 358 350 345 340 333 329 328 326 323 323 325 326 325 324 323 322 321 320 318 316 314 312
172 172 173 173 173 173 172 171 169 169 170 169 166 164 162 159 153 150 149 152 153 152 150 149 148 150 151 150 148 146 145 146 149 153 154 158 166 168 157 149 139 135 150 154 123 80 37 4 1 2 4 6 5 5 5 3 1 0 1 3 3 4 6 4 359 353 347 340 332 328 330 328 324 325 328 327 325 324 323 321 320 318 314 313 312
172 173 173 174 174 174 173 172 170 170 171 169 167 164 163 158 151 148 148 152 154 152 149 148 147 150 153 150 148 146 145 147 154 158 162 167 176 177 169 157 147 149 162 166 141 88 19 357 359 0 3 8 8 6 5 2 360 359 360 3 3 4 6 5 2 359 355 349 339 333 334 334 328 327 331 332 329 326 323 321 320 319 316 315 314
172 174 173 174 175 174 173 171 170 170 171 171 169 166 164 159 152 148 149 152 152 149 148 149 148 150 153 152 150 148 146 151 162 173 185 198 204 197 187 176 164 158 167 172 157 77 0 356 359 359 4 13 11 7 5 2 359 359 0 1 2 5 6 4 2 0 358 355 349 342 341 340 336 334 335 336 334 331 327 323 321 321 320 320 320
173 174 174 175 176 175 174 171 170 170 171 172 171 168 165 162 157 151 149 148 146 144 144 146 148 151 154 158 157 153 151 158 172 186 198 206 207 202 196 186 175 162 157 162 152 19 354 355 1 3 8 14 12 9 6 3 1 0 1 1 2 4 5 3 2 2 0 359 357 352 350 349 346 344 343 342 340 337 333 328 326 328 327 325 324
175 176 176 176 177 177 176 173 171 171 172 173 172 170 168 166 162 157 153 149 145 142 140 141 144 148 152 158 159 152 148 153 157 163 160 153 179 194 196 193 184 174 165 160 124 19 8 1 4 9 12 14 13 11 7 4 3 3 2 1 2 2 2 0 0 3 4 3 2 360 357 356 353 350 349 348 347 344 339 333 333 334 331 328 328
177 178 177 177 177 178 178 177 175 173 174 176 175 173 171 170 168 165 161 153 147 142 139 137 138 140 143 146 146 141 138 137 134 131 128 130 160 183 193 198 194 187 183 174 141 93 35 8 8 12 14 16 16 13 10 8 8 8 5 3 1 360 359 359 358 1 4 5 5 4 1 359 355 352 351 352 351 349 344 337 335 335 332 330 329
180 179 178 178 179 180 180 180 180 177 177 179 179 177 175 174 173 170 165 157 149 143 139 136 134 133 134 132 130 129 127 126 125 121 119 123 143 168 187 198 195 188 183 168 149 129 50 14 13 16 18 21 20 16 15 15 15 14 10 6 2 358 358 359 359 359 1 3 3 2 360 358 356 353 354 354 353 351 348 342 339 337 334 331 329
180 177 177 178 179 181 182 182 182 181 180 181 181 181 179 177 176 174 168 158 151 145 141 139 136 134 131 126 122 121 120 121 121 118 113 109 109 144 176 182 170 160 154 148 143 116 45 25 19 19 23 26 23 20 20 20 20 19 16 10 4 359 358 0 0 360 0 1 1 360 358 356 356 355 355 354 353 351 349 346 343 341 340 334 330
177 176 178 179 179 181 183 184 184 184 183 183 183 182 182 180 180 179 173 164 157 153 150 150 149 147 141 133 128 123 120 121 117 109 104 95 95 130 159 155 144 138 137 134 123 74 31 22 19 23 27 28 25 23 23 22 22 22 19 14 8 2 1 2 1 1 2 2 1 360 357 356 356 355 354 352 352 350 349 347 347 346 345 340 333
177 177 179 179 180 182 184 185 185 185 186 185 184 182 183 183 184 183 180 175 170 166 164 166 169 169 164 156 149 140 132 127 115 102 93 86 97 133 151 149 140 135 136 130 103 36 13 12 14 22 27 26 24 24 24 22 21 21 19 17 14 9 6 4 3 4 3 2 1 359 356 355 354 353 352 351 350 350 349 349 350 350 348 346 341
176 178 179 180 181 183 185 185 186 187 187 187 185 183 183 184 186 188 186 183 179 175 175 179 184 186 185 182 180 178 172 156 134 117 101 91 116 141 152 153 147 142 139 131 69 359 358 5 8 16 22 22 21 22 22 20 19 18 17 17 16 13 9 6 6 6 4 2 1 358 355 354 352 350 350 349 349 350 351 352 352 351 350 350 349
177 179 180 180 183 186 187 186 187 188 188 187 186 184 184 186 188 191 190 187 183 181 183 188 193 196 198 197 196 198 202 205 195 172 162 145 143 153 159 157 154 150 147 145 338 343 348 350 350 2 14 16 15 17 19 18 17 16 15 15 15 15 12 9 7 7 5 2 359 356 355 355 352 350 349 349 351 353 354 355 355 353 352 353 354
179 181 181 182 185 186 186 186 187 189 188 186 185 184 184 187 189 192 192 188 185 185 188 194 198 202 204 205 204 203 207 218 221 211 204 194 176 173 176 172 170 175 193 273 310 333 337 331 332 345 360 7 9 11 14 16 15 13 13 13 13 14 14 10 8 6 5 2 358 356 356 356 356 355 354 353 355 357 356 356 356 356 356 357 358
180 180 180 182 183 184 184 184 186 188 187 187 187 187 187 186 187 189 190 190 189 190 193 199 203 207 211 213 211 208 210 221 229 225 217 209 199 196 199 199 200 210 236 267 279 306 318 312 315 327 344 359 4 6 8 11 12 11 12 11 11 13 13 11 9 6 4 2 359 357 357 359 0 1 0 359 358 358 357 355 355 356 357 357 357
179 179 179 180 181 183 184 183 184 186 187 187 189 191 191 190 190 191 192 193 194 196 199 203 207 212 217 220 220 216 216 224 230 229 225 219 210 207 210 212 215 223 242 255 256 270 296 298 305 323 340 352 360 2 3 4 6 9 11 9 8 9 11 11 10 8 4 2 1 360 0 3 4 4 2 1 359 358 359 357 355 355 357 357 356
178 178 179 180 181 184 185 185 184 185 187 188 191 193 195 196 197 199 199 199 199 200 203 208 213 218 221 224 226 223 223 228 231 229 228 224 215 210 211 214 220 230 245 255 254 262 284 292 300 320 336 345 353 359 1 3 4 5 7 7 5 4 6 8 9 9 6 3 2 2 3 4 5 5 3 1 360 359 359 360 358 357 358 359 359
179 179 180 181 183 185 186 186 186 186 187 190 193 196 199 202 204 206 207 208 207 207 208 212 216 222 226 230 230 226 225 231 233 230 230 228 220 216 216 220 228 239 254 266 266 265 279 290 298 316 333 343 350 356 360 1 2 2 3 4 2 0 2 4 6 7 6 3 2 3 4 4 4 5 4 2 1 1 1 1 0 360 360 0 359
179 180 182 182 184 185 186 187 188 187 188 189 192 196 201 205 209 212 214 215 216 217 216 216 218 223 229 234 234 230 233 242 236 226 227 228 222 220 224 228 235 246 259 272 272 266 275 290 297 313 330 339 346 353 357 358 358 358 359 360 359 358 358 1 3 4 4 4 3 3 4 4 4 4 3 1 0 1 3 3 2 1 2 1 358
181 183 183 183 185 186 187 187 188 188 189 190 192 194 198 203 209 214 217 219 220 221 221 221 224 229 234 236 232 228 235 244 233 224 227 229 224 224 228 233 239 249 262 274 274 265 271 287 296 304 320 332 341 348 352 354 355 354 353 354 355 355 355 356 360 1 2 3 3 3 4 5 5 5 4 2 1 1 2 3 4 3 2 2 360
183 183 183 185 188 189 189 188 188 188 188 190 192 195 196 198 204 210 215 217 218 219 221 224 230 235 239 236 229 226 229 230 225 225 228 229 226 227 231 235 240 249 260 270 273 266 268 281 292 296 305 319 332 340 345 348 352 352 350 348 350 352 353 352 355 358 0 2 4 3 3 4 5 6 7 6 4 2 2 2 3 3 2 1 1
186 184 183 185 188 189 189 188 188 188 188 190 192 194 195 196 200 206 210 214 216 219 222 225 230 236 236 230 226 229 235 234 231 230 229 227 228 231 234 236 239 246 254 263 268 267 267 274 285 292 294 304 319 330 336 342 346 348 348 345 344 346 349 348 349 353 358 1 3 3 3 4 5 7 8 8 7 5 3 2 2 3 2 1 359
189 185 184 186 188 189 190 190 189 189 190 191 193 194 195 199 202 204 207 211 216 220 221 221 225 230 228 222 222 227 235 238 237 234 230 227 229 233 238 240 241 244 251 256 260 264 269 273 279 286 289 293 303 315 326 334 340 342 344 343 339 339 343 346 346 349 354 359 2 3 3 4 5 6 8 9 8 7 6 4 2 2 2 0 359
189 187 188 190 192 192 192 192 191 190 190 191 192 193 197 202 206 207 208 211 215 218 217 218 223 224 219 216 218 223 229 233 234 231 228 228 230 235 240 243 244 246 250 253 254 260 268 273 276 282 287 289 291 300 313 324 332 336 338 339 337 335 337 341 344 345 350 356 360 1 2 4 4 5 7 8 8 7 6 5 4 3 2 2 1
190 189 190 193 195 194 193 193 192 191 190 189 191 196 202 207 209 209 210 212 215 215 214 215 216 214 212 214 218 223 228 230 229 227 228 230 232 236 241 245 246 248 250 252 254 259 265 270 275 280 284 285 286 291 302 314 322 328 331 332 333 332 332 336 340 341 344 350 356 359 0 2 4 5 6 8 10 9 7 8 8 7 6 5 5
192 191 190 193 195 195 194 194 193 192 190 190 192 198 204 207 208 207 209 211 211 210 210 209 208 208 212 217 221 224 227 227 226 226 229 231 234 239 242 246 249 251 251 250 252 258 264 268 274 278 280 282 285 286 292 303 312 318 322 324 326 327 326 329 334 337 337 342 351 357 359 360 2 4 5 8 10 10 10 10 10 11 11 11 10
193 191 189 192 195 195 194 194 193 191 190 191 193 197 200 203 205 206 208 208 208 208 210 210 210 213 219 225 227 227 226 225 224 225 228 231 236 240 243 246 249 253 254 253 253 258 263 266 272 276 278 279 283 284 288 295 303 310 314 317 319 322 323 324 328 332 332 334 342 352 356 358 359 2 4 7 8 8 10 10 10 10 12 12 12
193 191 191 193 195 195 195 193 192 190 190 191 193 196 199 202 203 204 206 208 209 211 213 213 215 221 228 233 233 230 226 225 226 228 230 233 238 241 244 247 250 252 254 256 258 261 265 268 272 277 278 279 281 284 286 290 296 303 308 311 313 317 321 322 323 326 328 330 334 344 352 356 356 358 1 5 7 8 10 11 10 10 10 10 11
189 190 192 194 194 195 197 195 193 191 190 191 194 198 202 204 205 206 209 211 213 214 216 218 222 226 231 235 234 230 227 227 229 230 232 235 238 242 245 248 251 253 256 261 265 269 272 275 276 278 279 279 281 283 285 287 291 297 303 307 309 313 317 319 319 320 323 325 328 334 344 351 354 353 355 360 5 8 9 10 11 10 10 10 11
187 188 191 193 194 196 198 197 195 193 191 192 194 199 203 207 208 210 212 214 215 216 219 223 226 229 233 237 236 233 232 232 232 234 236 238 241 244 247 250 254 257 260 265 270 275 279 283 284 282 279 279 280 283 284 285 287 292 299 304 305 308 311 314 316 317 318 320 321 325 334 343 349 350 350 352 358 3 6 9 11 11 10 9 10
186 187 189 190 192 196 199 200 198 196 194 195 196 199 204 208 209 210 212 216 219 222 224 228 232 235 237 238 237 235 235 237 237 239 242 244 247 251 254 257 259 262 264 268 272 277 283 287 287 282 278 279 282 284 285 285 286 290 296 300 302 304 307 310 313 315 316 316 315 317 323 332 341 345 346 345 347 355 2 6 9 9 9 9 9
185 188 189 190 193 199 202 203 200 197 197 198 199 202 207 210 211 213 217 222 225 228 230 233 237 238 236 235 236 236 237 240 242 245 248 251 254 258 260 263 265 267 268 270 272 276 282 286 285 280 278 280 284 287 287 288 289 290 292 295 297 299 302 305 310 313 315 314 312 311 313 320 329 337 341 342 342 346 356 2 4 6 7 7 8
185 188 189 190 194 200 204 204 201 200 201 204 205 207 210 212 215 218 223 227 231 233 235 237 238 236 233 234 236 238 240 243 246 250 254 256 258 260 263 267 269 270 269 270 272 275 279 282 281 278 279 281 284 286 287 288 289 289 290 291 293 294 296 300 306 311 312 310 310 309 308 311 318 326 332 337 338 338 343 351 357 0 2 4 7
187 189 189 191 195 200 204 206 205 205 205 206 207 209 212 215 219 223 228 233 236 238 239 240 240 237 236 237 238 241 245 249 252 254 256 257 259 262 265 268 269 270 269 270 270 272 274 277 277 277 278 281 283 285 286 287 289 289 289 289 290 291 294 297 300 303 304 305 308 309 306 305 309 315 321 328 333 334 334 337 344 351 356 359 2
188 189 190 192 194 197 201 204 207 208 208 207 208 210 213 217 222 228 235 238 240 240 241 242 242 242 241 240 240 242 246 250 252 254 256 257 260 263 266 269 271 272 271 271 271 270 272 274 275 276 277 279 283 285 287 289 290 290 290 290 290 291 294 296 295 294 295 299 303 305 304 302 303 307 311 316 322 327 329 328 329 336 344 349 354
189 190 192 193 194 195 198 201 205 208 209 208 209 212 216 221 228 233 238 240 240 241 241 242 243 244 244 243 242 243 247 250 252 254 256 258 260 263 268 274 278 278 277 276 274 273 273 273 273 273 275 276 280 283 286 288 290 292 293 293 293 294 295 296 294 291 290 291 295 297 299 300 300 300 303 307 311 316 321 322 320 322 328 336 343
190 191 192 193 193 194 195 199 202 204 205 205 207 212 219 227 233 237 239 240 240 241 241 241 242 245 246 246 246 246 247 249 253 256 258 262 265 269 273 277 278 278 279 278 278 278 277 276 275 274 274 274 277 280 283 287 289 290 293 295 296 297 298 298 296 294 290 287 287 289 292 294 296 296 297 299 301 305 311 315 315 314 315 321 330
189 189 190 191 192 193 196 199 202 205 208 210 213 219 225 231 236 239 240 240 240 240 240 240 241 243 245 246 247 247 247 250 255 261 265 268 271 273 274 276 277 279 280 281 282 282 282 282 282 281 279 278 279 280 282 285 287 288 292 295 297 297 298 299 299 299 295 288 284 283 284 287 290 291 291 293 295 296 300 305 309 310 308 309 317
187 188 188 190 191 193 198 202 205 209 213 215 218 226 236 243 246 246 243 240 238 237 239 241 243 245 247 247 248 249 252 256 261 266 269 271 273 274 276 278 280 282 283 284 285 286 286 286 286 285 284 284 284 284 284 285 287 288 290 293 293 295 296 297 298 299 298 294 288 283 280 281 283 285 286 288 289 290 292 295 299 302 301 300 305
186 186 187 189 191 193 198 202 205 210 215 218 221 229 237 243 246 246 244 242 242 244 246 247 250 252 254 255 256 257 259 262 266 270 273 275 277 278 279 280 281 282 283 284 285 286 287 287 287 286 286 287 288 289 288 288 288 287 287 287 288 290 293 295 296 297 298 297 294 287 280 277 277 279 281 283 284 285 287 289 290 293 294 294 295